User: anonymous   Login
Location: Brno
(49.2000°N, 16.6330°E)
Time: 23:10:34
(UTC+02:00)
Language:

BREEZE M DEB (TANK) - Orbit

View from above orbital plane
View from above orbital plane
View from above satellite
View from above satellite

Ground track
Ground track

The orbit data is extracted from the following two-line orbital elements,

1 28359U 04022B   16148.17816655  .00000840  00000-0  10754-3 0  9996
2 28359  49.5412  72.0670 4680118 260.0100  45.9745  6.18261039261372
Epoch (UTC): 27 May 2016 04:16:33
Eccentricity: 0.4680118
inclination: 49.5412°
perigee height: 293 km
apogee height: 12030 km
right ascension of ascending node: 72.0670°
argument of perigee: 260.0100°
revolutions per day: 6.18261039
mean anomaly at epoch: 45.9745°
orbit number at epoch: 26137

The dashed part of the orbit path shows where the satellite is in the earth's shadow,  

DLR